This demonstration page uses our WeatherBlox Daily Observations layout. Learn more.

Left ArrowRight Arrow

Hourly Observations for September 17, 2015

Temp ( °F °C ) Dew Point ( °F °C ) Humidity (%) Winds ( mph kmh ) Pressure ( in mb ) Visibility ( mi km ) Precip ( " mm )
12:53 am 00:53 Clear 77 25 64 17.8 64 64 S 13 20 29.71 1006 10 16 0.00 0.00
1:53 am 01:53 Clear 76 24.4 64 17.8 67 67 S 10 17 29.69 1006 10 16 0.00 0.00
2:53 am 02:53 Clear 76 24.4 64 17.8 67 67 S 12 19 29.67 1005 10 16 0.00 0.00
3:53 am 03:53 Clear 75 23.9 64 17.8 69 69 S 13 20 29.66 1005 10 16 0.00 0.00
4:53 am 04:53 Clear 74 23.3 64 17.8 71 71 S 9 15 29.65 1004 10 16 0.00 0.00
5:53 am 05:53 Clear 73 22.8 64 17.8 74 74 S 7 11 29.65 1004 10 16 0.00 0.00
6:53 am 06:53 Clear 72 22.2 63 17.2 73 73 S 5 7 29.67 1005 10 16 0.00 0.00
7:53 am 07:53 Sunny 70 21.1 63 17.2 79 79 S 7 11 29.68 1005 10 16 0.00 0.00
8:53 am 08:53 Sunny 73 22.8 64 17.8 74 74 W 6 9 29.71 1006 10 16 0.00 0.00
9:53 am 09:53 Sunny 76 24.4 64 17.8 67 67 NNW 15 24 29.72 1006 10 16 0.00 0.00
10:53 am 10:53 Sunny 76 24.4 62 16.7 62 62 N 21 33 29.73 1007 10 16 0.00 0.00
11:53 am 11:53 Sunny 78 25.6 61 16.1 56 56 N 16 26 29.76 1008 10 16 0.00 0.00
12:53 pm 12:53 Sunny 80 26.7 62 16.7 54 54 NNE 13 20 29.77 1008 10 16 0.00 0.00
1:53 pm 13:53 Sunny 83 28.3 58 14.4 43 43 N 18 30 29.78 1009 10 16 0.00 0.00
2:53 pm 14:53 Sunny 83 28.3 56 13.3 40 40 N 16 26 29.78 1009 10 16 0.00 0.00
3:53 pm 15:53 Sunny 83 28.3 56 13.3 40 40 NNE 13 20 29.79 1009 10 16 0.00 0.00
4:53 pm 16:53 Sunny 84 28.9 54 12.2 36 36 N 16 26 29.79 1009 10 16 0.00 0.00
5:53 pm 17:53 Sunny 82 27.8 53 11.7 37 37 N 13 20 29.80 1009 10 16 0.00 0.00
6:53 pm 18:53 Sunny 79 26.1 53 11.7 41 41 NNE 12 19 29.81 1010 10 16 0.00 0.00
7:53 pm 19:53 Clear 71 21.7 55 12.8 57 57 NNE 7 11 29.83 1010 10 16 0.00 0.00
8:53 pm 20:53 Clear 68 20 54 12.2 61 61 N 10 17 29.85 1011 10 16 0.00 0.00
9:53 pm 21:53 Clear 65 18.3 53 11.7 66 66 NNE 7 11 29.87 1011 10 16 0.00 0.00
10:53 pm 22:53 Clear 64 17.8 51 10.6 63 63 NNE 10 17 29.87 1012 10 16 0.00 0.00
11:53 pm 23:53 Clear 62 16.7 51 10.6 67 67 NE 8 13 29.89 1012 10 16 0.00 0.00

Powered by AerisWeather